Regional Weather Roundup
Issued by NWS Huntsville, AL

Home | Current Version | Previous Version | Text Only | Print | Product List | Glossary On
Versions: 1 2 3 4 5 6 7 8 9 10 11 12 13 14 15 16 17 18 19 20 21 22 23 24 25 26 27
000
ASUS44 KHUN 260410
RWRHUN

WEATHER ROUNDUP FOR THE TENNESSEE VALLEY
NATIONAL WEATHER SERVICE HUNTSVILLE AL
1100 PM CDT TUE JUL 25 2017

ALZ001>004-260500-
NORTHWEST ALABAMA

CITY           SKY/WX    TMP DP  RH WIND       PRES   REMARKS
COURTLAND HCN    N/A     77 N/A N/A SW3         N/A
RUSSELLVILLE     N/A     75 N/A N/A MISG        N/A
SHOALS AIRPORT CLEAR     76  71  85 CALM      30.11R
SHOALS TVA RES   N/A     75 N/A N/A MISG        N/A
$$

ALZ005>007-016-260500-
NORTH CENTRAL ALABAMA

CITY           SKY/WX    TMP DP  RH WIND       PRES   REMARKS
CULLMAN AG STN   N/A     77 N/A N/A CALM        N/A
DECATUR AP     CLEAR     76  74  93 E7        30.11R
HUNTSVILLE AP  PTCLDY    79  74  84 E7        30.11R
MERIDIANVILLE  MOCLDY    75  73  94 CALM      30.11S
REDSTONE ARSN  CLOUDY    75  73  93 SW3       30.10R
VINEMONT AP    FAIR      74  73  95 CALM      30.14S
$$

ALZ008>010-260500-
NORTHEAST ALABAMA

CITY           SKY/WX    TMP DP  RH WIND       PRES   REMARKS
ALBERTVILLE    CLEAR     73  73 100 SE3       30.12R
FORT PAYNE     CLEAR     72  70  94 CALM      30.12S
SCOTTSBORO HCN   N/A     73 N/A N/A MISG        N/A
VALLEY HEAD      N/A     70 N/A N/A MISG        N/A
$$

TNZ076-096-097-260500-
SOUTHEASTERN MIDDLE TENNESSEE

CITY           SKY/WX    TMP DP  RH WIND       PRES   REMARKS
TULLAHOMA      PTCLDY    75  70  83 CALM      30.14S
WINCHESTER     CLEAR     73  70  88 CALM      30.13S
$$

...SURROUNDING SITES...

CITY           SKY/WX    TMP DP  RH WIND       PRES   REMARKS
ATLANTA        CLOUDY    78  72  81 S3        30.12F
ANNISTON       MOCLDY    73  71  93 CALM      30.10F
BIRMINGHAM     PTCLDY    79  75  87 SE3       30.12S
CHATTANOOGA    PTCLDY    80  70  71 NW3       30.11S
CORINTH        FAIR      77  73  88 CALM      30.09R
DALTON         NOT AVBL
GADSDEN        CLEAR     74  72  93 CALM      30.10F
GOLDEN TRNGL   CLOUDY    79  72  78 MISG      30.06R
JACKSON TN     CLEAR     78  77  96 CALM      30.08R
MEMPHIS        CLEAR     83  74  74 SW6       30.07R
NASHVILLE      MOCLDY    82  74  76 CALM      30.10S
OXFORD MS      FAIR      75  73  94 CALM      30.11R
ROME           PTCLDY    77  75  93 CALM      30.09F
SAVANNAH       CLEAR     77  75  94 S3        30.08S
SELMER         CLEAR     77  73  88 CALM      30.09S
TUPELO         CLEAR     81  73  76 CALM      30.09R
TUSCALOOSA     PTCLDY    78  78 100 S3        30.09R
$$

...GULF COAST WEATHER...

CITY           SKY/WX    TMP DP  RH WIND       PRES   REMARKS
GULFPORT       CLEAR     77  75  93 CALM      30.10S
PASCAGOULA     CLEAR     74  72  93 CALM      30.12R
MOBILE         MOCLDY    76  73  91 SW6       30.13R
GULF SHORES    PTCLDY    76  76 100 W5        30.11R
PENSACOLA      CLEAR     77  73  87 NW3       30.10R
DESTIN         CLEAR     82  74  76 N3        30.09S
PANAMA CITY    PTCLDY    77  74  93 CALM      30.10R
APPALACHICOLA  PTCLDY    80  77  90 CALM      30.09S
$$





USA.gov is the U.S. government's official web portal to all federal, state and local government web resources and services.